Regional Weather Roundup
Issued by NWS Sioux Falls, SD

Home | Current Version | Previous Version | Text Only | Print | Product List | Glossary On
Versions: 1 2 3 4 5 6 7 8 9 10 11 12 13 14 15 16 17 18 19 20 21 22 23 24 25 26 27 28 29 30 31 32 33 34 35 36 37 38 39 40 41 42 43 44 45 46 47 48 49 50
000
ASUS43 KFSD 220102
RWRFSD

WEATHER ROUNDUP FOR SE SOUTH DAKOTA/SW MINNESOTA/NW IOWA
NATIONAL WEATHER SERVICE SIOUX FALLS SD
800 PM CDT THU AUG 21 2014

NOTE: "FAIR" INDICATES FEW OR NO CLOUDS BELOW 12,000 FEET WITH NO
SIGNIFICANT WEATHER AND OR OBSTRUCTIONS TO VISIBILITY.


SDZ038>040-050-052>070-220200-
SOUTHEAST SOUTH DAKOTA

CITY           SKY/WX    TMP DP  RH WIND       PRES   REMARKS
CHAMBERLAIN    PTCLDY    82  64  53 N3        29.88R
HURON          PTCLDY    79  66  64 N8        29.85S
MADISON        FAIR      75  73  94 N6        29.88R
MITCHELL       PTCLDY    80  68  66 N6        29.85S
SIOUX FALLS    PTCLDY    79  70  74 N6        29.86R
WINNER         FAIR      84  61  45 N5        29.90S
YANKTON        CLEAR     82  72  69 N5        29.83S
$$

MNZ071-072-080-081-089-090-097-098-220200-
SOUTHWEST MINNESOTA

CITY           SKY/WX    TMP DP  RH WIND       PRES   REMARKS
FAIRMONT       MOCLDY    81  72  74 MISG      29.84R
JACKSON        CLOUDY    72  66  83 N13G37    29.88R
LUVERNE        CLEAR     81  70  69 CALM      29.86R
MARSHALL       CLEAR     79  68  69 N9        29.84R
MONTEVIDEO     MOCLDY    79  72  78 N5        29.84R
PIPESTONE      CLEAR     79  70  73 N7        29.87S
REDWOOD FALLS  CLEAR     82  73  74 CALM      29.82R
TRACY          CLEAR     79  75  87 N3        29.85R
WINDOM         PTCLDY    75  66  73 SE3       29.86R
WORTHINGTON    CLOUDY    82  21  10 NW6       29.87R
$$

IAZ001>003-012>014-020>022-031-032-NEZ013-014-SDZ071-220200-
NORTHWEST IOWA

CITY           SKY/WX    TMP DP  RH WIND       PRES   REMARKS
CHEROKEE       MOCLDY    84  78  83 CALM      29.83F
DENISON        CLEAR     82  75  78 SE3       29.83S
ESTHERVILLE    PTCLDY    80  74  81 SW7       29.85R
LE MARS        CLEAR     84  79  84 CALM      29.83S HX  96
ORANGE CITY    MOCLDY    84  75  74 SW3       29.85R
SHELDON        CLOUDY    82  77  83 NW3       29.84R
SIOUX CITY     CLEAR     85  76  74 N3        29.82S
SPENCER        PTCLDY    81  76  84 S3        29.85R
STORM LAKE     PTCLDY    79  79 100 S3        29.86S
$$

ABBREVIATIONS USED IN REMARKS
   TC - TEMPERATURE IN CELSIUS
  WCI - WIND CHILL INDEX
   HX - HEAT INDEX
  VSB - VISIBILITY



USA.gov is the U.S. government's official web portal to all federal, state and local government web resources and services.